Weather in Dubitel

Russia / Republic of Mordovia     54°09′36″N   42°34′40″E
temp.,
°C
wind,
m/s
gust,
m/s
humid.,
%
clouds,
%
prec.,
mm/h
press.,
hPa
HPBL,
m
22 may, sun
sun2200:00+4e227555 0.0 100625
03:00+2ene248645 0.0 100566
06:00+4ene4979100 0.0 1003364
09:00+10ene346276 0.0 10021038
12:00+10ne345699 0.0 10011243
15:00+11nne3347100 0.1 10001647
18:00+10nne455362 0.0 10001356
21:00+5nne4106768 0.0 1002527
23 may, mon
mon2300:000n38815 0.0 1003198
03:00−2nnw27875 0.0 1004141
06:00+1nnw36715 0.0 1004317
09:00+6nw465297 0.0 10031590
12:00+6nw5755100 0.0 10041600
15:00+7nw5852100 0.1 10041735
18:00+9w3754100 0.0 10031496
21:00+5sw3780100 0.0 1003145
24 may, tue
tue2400:00+3wsw3791100 0.0 1003140
03:00+3sw3983100 0.0 1003210
06:00+5wnw4106599 0.0 1003643
09:00+8wnw61250100 0.0 10041749
12:00+6wnw5874100 0.3 10061130
15:00+7nw4562100 0.8 10071227
18:00+7nnw3569100 0.3 10081056
21:00+4n258984 0.6 1010141
25 may, wed
wed2500:000n22945 0.0 101228
03:00−1nw23945 0.0 101348
06:00+2nw25845 0.0 1014201
09:00+7nw355761 0.0 10141371
12:00+8nw4555100 0.1 10141280
15:00+9nw455299 0.1 10151617
18:00+9wnw255571 0.0 10151147
21:00+4wsw378663 0.0 1016126
26 may, thu
thu2600:00+3wsw378876 0.0 1015178
03:00+2sw378793 0.0 1015147
06:00+5sw377599 0.0 1014228
09:00+10sw355793 0.0 10121049
12:00+15wsw475487 0.0 10091637
15:00+17wsw355711 0.0 10071337
18:00+13wsw51194100 1.8 1005566
21:00+11s31197100 3.1 1003425